Satellite: COMPASS
Catalog number: 32787
Epoch time:      12221.72581563
Element set:    0378
Inclination:      097.7954 deg
RA of node:       281.8934 deg
Eccentricity:    0.0014012
Arg of perigee:   248.2585 deg
Mean anomaly:     111.7152 deg
Mean motion:   14.84185808 rev/day
Decay rate:      1.987e-05 rev/day^2
Epoch rev:           23160
Checksum:              318

Satellite: AAUSAT2
Catalog number: 32788
Epoch time:      12221.61638226
Element set:    0370
Inclination:      097.7970 deg
RA of node:       282.1972 deg
Eccentricity:    0.0013310
Arg of perigee:   247.8545 deg
Mean anomaly:     112.1258 deg
Mean motion:   14.84524851 rev/day
Decay rate:      2.553e-05 rev/day^2
Epoch rev:           23161
Checksum:              293

Satellite: DO-64
Catalog number: 32789
Epoch time:      12221.67637513
Element set:    0386
Inclination:      097.8082 deg
RA of node:       284.4828 deg
Eccentricity:    0.0013513
Arg of perigee:   242.9135 deg
Mean anomaly:     117.0700 deg
Mean motion:   14.86140648 rev/day
Decay rate:      4.043e-05 rev/day^2
Epoch rev:           23167
Checksum:              308

Satellite: CO-66
Catalog number: 32791
Epoch time:      12221.73666672
Element set:    0369
Inclination:      097.7940 deg
RA of node:       281.6030 deg
Eccentricity:    0.0014321
Arg of perigee:   244.8068 deg
Mean anomaly:     115.1667 deg
Mean motion:   14.83571748 rev/day
Decay rate:      1.910e-05 rev/day^2
Epoch rev:           23153
Checksum:              311

Satellite: RS-30
Catalog number: 32953
Epoch time:      12222.65348310
Element set:      38
Inclination:      082.5008 deg
RA of node:       261.8927 deg
Eccentricity:    0.0018596
Arg of perigee:   187.0819 deg
Mean anomaly:     173.0014 deg
Mean motion:   12.43026503 rev/day
Decay rate:        1.0e-07 rev/day^2
Epoch rev:           19120
Checksum:              263

Satellite: PHARMSAT
Catalog number: 35002
Epoch time:      12222.87087790
Element set:      59
Inclination:      040.4447 deg
RA of node:       077.8011 deg
Eccentricity:    0.0014903
Arg of perigee:   293.2950 deg
Mean anomaly:     066.6018 deg
Mean motion:   16.17587914 rev/day
Decay rate:   1.113097e-02 rev/day^2
Epoch rev:           18290
Checksum:              296

Satellite: METEOR-M
Catalog number: 35865
Epoch time:      12222.77108838
Element set:     668
Inclination:      098.6508 deg
RA of node:       276.0803 deg
Eccentricity:    0.0001640
Arg of perigee:   258.2559 deg
Mean anomaly:     101.8429 deg
Mean motion:   14.21867039 rev/day
Decay rate:       -6.0e-08 rev/day^2
Epoch rev:           15021
Checksum:              301

Satellite: RS-38
Catalog number: 35869
Epoch time:      12222.71387992
Element set:     674
Inclination:      098.6460 deg
RA of node:       276.0110 deg
Eccentricity:    0.0003792
Arg of perigee:   257.8280 deg
Mean anomaly:     102.2467 deg
Mean motion:   14.22081686 rev/day
Decay rate:        4.3e-07 rev/day^2
Epoch rev:           15022
Checksum:              305

Satellite: JUGNU
Catalog number: 37839
Epoch time:      12221.81644575
Element set:    0204
Inclination:      019.9627 deg
RA of node:       039.3908 deg
Eccentricity:    0.0019672
Arg of perigee:   081.3844 deg
Mean anomaly:     278.8706 deg
Mean motion:   14.12071297 rev/day
Decay rate:       6.19e-06 rev/day^2
Epoch rev:           04269
Checksum:              321

Satellite: SRMSAT
Catalog number: 37841
Epoch time:      12221.87182326
Element set:     202
Inclination:      019.9720 deg
RA of node:       044.9607 deg
Eccentricity:    0.0011595
Arg of perigee:   047.2449 deg
Mean anomaly:     312.8993 deg
Mean motion:   14.10153237 rev/day
Decay rate:       2.64e-06 rev/day^2
Epoch rev:            4263
Checksum:              279

Satellite: RAX-2
Catalog number: 37853
Epoch time:      12221.91088141
Element set:    0260
Inclination:      101.7098 deg
RA of node:       286.1113 deg
Eccentricity:    0.0246265
Arg of perigee:   200.5342 deg
Mean anomaly:     158.5823 deg
Mean motion:   14.80326871 rev/day
Decay rate:      4.243e-05 rev/day^2
Epoch rev:           04220
Checksum:              267

Satellite: AUBIESAT
Catalog number: 37854
Epoch time:      12222.86516696
Element set:     253
Inclination:      101.7099 deg
RA of node:       287.8187 deg
Eccentricity:    0.0247306
Arg of perigee:   196.9647 deg
Mean anomaly:     162.3176 deg
Mean motion:   14.80747547 rev/day
Decay rate:      5.162e-05 rev/day^2
Epoch rev:            4233
Checksum:              332

Satellite: HRBE
Catalog number: 37855
Epoch time:      12222.88431804
Element set:     250
Inclination:      101.7114 deg
RA of node:       287.7847 deg
Eccentricity:    0.0247318
Arg of perigee:   197.1507 deg
Mean anomaly:     162.1244 deg
Mean motion:   14.80585841 rev/day
Decay rate:      4.773e-05 rev/day^2
Epoch rev:            4233
Checksum:              298

Satellite: RS-39
Catalog number: 38051
Epoch time:      12222.85105324
Element set:     592
Inclination:      051.6375 deg
RA of node:       263.9678 deg
Eccentricity:    0.0013430
Arg of perigee:   228.6761 deg
Mean anomaly:     112.7608 deg
Mean motion:   15.25123708 rev/day
Decay rate:     1.1021e-04 rev/day^2
Epoch rev:            3015
Checksum:              274

Satellite: E-STAR
Catalog number: 38079
Epoch time:      12222.34308485
Element set:     414
Inclination:      069.4844 deg
RA of node:       193.9110 deg
Eccentricity:    0.0730368
Arg of perigee:   180.8450 deg
Mean anomaly:     179.1500 deg
Mean motion:   14.17990179 rev/day
Decay rate:     3.3076e-04 rev/day^2
Epoch rev:            2511
Checksum:              299

Satellite: GOLIAT
Catalog number: 38085
Epoch time:      12222.30168860
Element set:     383
Inclination:      069.4905 deg
RA of node:       194.4478 deg
Eccentricity:    0.0735699
Arg of perigee:   181.2098 deg
Mean anomaly:     178.7275 deg
Mean motion:   14.16949861 rev/day
Decay rate:     3.2774e-04 rev/day^2
Epoch rev:            2509
Checksum:              349

Satellite: HORYU-2
Catalog number: 38340
Epoch time:      12222.87145132
Element set:      85
Inclination:      098.1753 deg
RA of node:       162.7290 deg
Eccentricity:    0.0013300
Arg of perigee:   154.9150 deg
Mean anomaly:     205.2731 deg
Mean motion:   14.70083450 rev/day
Decay rate:      1.269e-05 rev/day^2
Epoch rev:            1236
Checksum:              256

Satellite: RS-40
Catalog number: 38736
Epoch time:      12222.60626955
Element set:      18
Inclination:      082.4813 deg
RA of node:       349.3858 deg
Eccentricity:    0.0017722
Arg of perigee:   288.1690 deg
Mean anomaly:     071.7460 deg
Mean motion:   12.42645811 rev/day
Decay rate:        1.0e-07 rev/day^2
Epoch rev:             154
Checksum:              288

/EX




More information about the Keps mailing list